Location: Aldenham
(51.6667°N, 0.3500°W)
Time: 12:23:02
(UTC+00:00)

A-11 Canister half - Pass Details

Date: 25 February 2026
Orbit: 1513 x 1686 km, 47.2° (Epoch: 17 March)

Event Time Altitude Azimuth Distance (km) Brightness Sun altitude
Rises 19:47:28 0° 236° (WSW) 4,932 12.3 -21.3°
Reaches altitude 10° 19:50:42 10° 233° (SW) 3,948 11.6 -21.8°
Maximum altitude 20:00:32 57° 158° (SSE) 1,924 9.2 -23.2°
Enters shadow 20:04:33 37° 102° (ESE) 2,387 9.4 -23.8°
Drops below altitude 10° 20:10:13 10° 84° (E) 3,895 - -24.7°
Sets 20:13:23 0° 81° (E) 4,862 - -25.1°
